(71321) = 1998 SZ120 = 2000 AB83

Discovered at Socorro on 2000-01-05 by LINEAR.

Orbit

Orbit type: Main Belt

Note: WebGL enabled browser required.

epoch2024-03-31.0
epoch JD2460400.5
perihelion date2022-12-18.08301
perihelion JD2459931.58301
argument of perihelion (°)322.07193
ascending node (°)167.44874
inclination (°)5.05854
eccentricity0.1338958
perihelion distance (AU)2.7425219
Tisserand w.r.t. Jupiter3.2
ΔV w.r.t. Earth (km/sec)10.4
semimajor axis (AU)3.1665034
mean anomaly (°)82.02191
mean daily motion (°/day)0.17491780
aphelion distance (AU)3.590
period (years)5.63
P-vector [x]-0.63687674
P-vector [y]0.72715580
P-vector [z]0.25618834
Q-vector [x]-0.77072749
Q-vector [y]-0.60875963
Q-vector [z]-0.18812457
absolute magnitude14.62
phase slope0.15
uncertainty0
referenceMPEC 2024-C181
observations used1319
oppositions20
arc length (days)9437
first opposition used1997
last opposition used2023
residual rms (arc-secs)0.65
perturbers coarse indicatorM-v
perturbers precise indicator003Ek
first observation date used1997-07-02.0
last observation date used2023-05-04.0
computer nameMPCLINUX
JD of orbit computation2456966.725803
perihelion JD uncertainty (days)1.2435E-04
argument of perihelion uncertainty (°)5.3784E-05
ascending node uncertainty (°)5.0144E-05
inclination uncertainty (°)6.1073E-06
eccentricity uncertainty 5.2321E-08
perihelion distance uncertainty (AU)1.6442E-07
Minimum Orbit Intersection Distances (in AU)
for orbit epoch: 2460400.5, reference: E2024-FA5
Mercury2.40974
Venus2.02906
Earth1.75991
Mars1.09958
Jupiter1.47051
Saturn6.08237
Uranus15.5831
Neptune26.4591

Observations

1351 total observations over interval: 1997 07 02.39384 – 2023 05 04.216886
These data are available for download (format description).

Date (UT) J2000 RA J2000 Dec Magn Location Ref
1997 07 02.39384 21 17 01.21 -11 18 59.4 20.4 V 691 – Steward Observatory, Kitt Peak-Spacewatch MPS 79636
1997 07 02.42604 21 17 00.36 -11 19 02.8 20.4 V 691 – Steward Observatory, Kitt Peak-Spacewatch MPS 79636
1997 07 02.44393 21 16 59.91 -11 19 04.6 20.5 V 691 – Steward Observatory, Kitt Peak-Spacewatch MPS 79636
1998 09 26.23722 01 14 54.73 +04 35 42.8 19.9   704 – Lincoln Laboratory ETS, New Mexico MPS 2788
1998 09 26.25389 01 14 54.07 +04 35 37.7 20.0   704 – Lincoln Laboratory ETS, New Mexico MPS 2788
1998 09 26.27056 01 14 53.36 +04 35 31.8 19.8   704 – Lincoln Laboratory ETS, New Mexico MPS 2788
1998 09 27.37875 01 14 10.76 +04 29 31.5 19.5   704 – Lincoln Laboratory ETS, New Mexico MPS 2788
1998 09 27.39600 01 14 09.85 +04 29 27.2 20.0   704 – Lincoln Laboratory ETS, New Mexico MPS 2788
1998 09 27.41327 01 14 09.23 +04 29 18.9 20.1   704 – Lincoln Laboratory ETS, New Mexico MPS 2788
1998 09 27.43052 01 14 08.58 +04 29 13.2 20.3   704 – Lincoln Laboratory ETS, New Mexico MPS 2788
1999 12 06.35906 07 24 37.75 +15 11 05.6 18.5   704 – Lincoln Laboratory ETS, New Mexico MPS 16752
1999 12 06.37356 07 24 37.30 +15 11 05.3 18.9   704 – Lincoln Laboratory ETS, New Mexico MPS 16752
1999 12 06.40531 07 24 36.50 +15 11 04.6 19.1   704 – Lincoln Laboratory ETS, New Mexico MPS 16752
1999 12 06.41954 07 24 36.11 +15 11 05.5 18.8   704 – Lincoln Laboratory ETS, New Mexico MPS 16752
1999 12 14.29632 07 20 34.49 +15 11 49.6 18.3   704 – Lincoln Laboratory ETS, New Mexico MPS 16752
1999 12 14.31110 07 20 33.90 +15 11 49.2 19.1   704 – Lincoln Laboratory ETS, New Mexico MPS 16752
1999 12 14.32601 07 20 33.30 +15 11 49.9 19.0   704 – Lincoln Laboratory ETS, New Mexico MPS 16752
1999 12 14.34075 07 20 32.77 +15 11 50.6 19.0   704 – Lincoln Laboratory ETS, New Mexico MPS 16752
1999 12 14.35553 07 20 32.31 +15 11 50.4 18.7   704 – Lincoln Laboratory ETS, New Mexico MPS 16752
2000 01 05.29183 07 03 49.30 +15 40 34.8 18.0   704 – Lincoln Laboratory ETS, New Mexico MPS 9310
2000 01 05.30645 07 03 48.55 +15 40 36.2 18.6   704 – Lincoln Laboratory ETS, New Mexico MPS 9310
2000 01 05.32113 07 03 47.79 +15 40 38.4 18.5   704 – Lincoln Laboratory ETS, New Mexico MPS 9310
2000 01 05.33568 07 03 47.01 +15 40 40.3 18.7   704 – Lincoln Laboratory ETS, New Mexico MPS 9310
2000 01 05.35028 07 03 46.22 +15 40 42.3 18.4   704 – Lincoln Laboratory ETS, New Mexico MPS 9310
2000 01 06.22615 07 03 01.37 +15 42 31.5 18.2   704 – Lincoln Laboratory ETS, New Mexico MPS 9310
2000 01 06.24106 07 03 00.59 +15 42 33.6 18.8   704 – Lincoln Laboratory ETS, New Mexico MPS 9310
2000 01 06.25569 07 02 59.87 +15 42 36.2 19.1   704 – Lincoln Laboratory ETS, New Mexico MPS 9310
2000 02 03.19075 06 42 38.41 +16 55 30.2 19.2   704 – Lincoln Laboratory ETS, New Mexico MPS 16752
2000 02 03.20508 06 42 37.95 +16 55 31.4 19.2   704 – Lincoln Laboratory ETS, New Mexico MPS 16752
2000 02 03.21935 06 42 37.48 +16 55 32.7 19.4   704 – Lincoln Laboratory ETS, New Mexico MPS 16752
2001 03 24.31503 13 44 45.15 -06 51 08.8 19.1   704 – Lincoln Laboratory ETS, New Mexico MPS 27797
2001 03 24.35422 13 44 43.73 -06 50 56.3 19.0   704 – Lincoln Laboratory ETS, New Mexico MPS 27797
2001 03 24.36729 13 44 43.25 -06 50 52.4 19.7   704 – Lincoln Laboratory ETS, New Mexico MPS 27797
2001 04 01.27261 13 39 46.76 -06 08 02.5 18.6   704 – Lincoln Laboratory ETS, New Mexico MPS 27797
2001 04 01.28703 13 39 46.03 -06 07 57.3 19.4   704 – Lincoln Laboratory ETS, New Mexico MPS 27797
2001 04 01.31597 13 39 44.95 -06 07 46.9 19.1   704 – Lincoln Laboratory ETS, New Mexico MPS 27797
2001 04 16.26906 13 29 09.82 -04 44 22.4 18.6   704 – Lincoln Laboratory ETS, New Mexico MPS 29509
2001 04 16.28244 13 29 09.19 -04 44 18.6 19.3   704 – Lincoln Laboratory ETS, New Mexico MPS 29509
2001 04 16.29579 13 29 08.63 -04 44 14.0 18.9   704 – Lincoln Laboratory ETS, New Mexico MPS 29509
2001 04 16.30914 13 29 08.16 -04 44 10.2 19.4   704 – Lincoln Laboratory ETS, New Mexico MPS 29509
2001 04 16.32242 13 29 07.39 -04 44 06.0 19.3   704 – Lincoln Laboratory ETS, New Mexico MPS 29509
2001 05 23.21259 13 09 49.62 -02 33 01.5 19.3 R 699 – Lowell Observatory-LONEOS MPS 30788
2001 05 23.24383 13 09 49.06 -02 32 58.6   699 – Lowell Observatory-LONEOS MPS 30788
2001 05 23.29858 13 09 48.37 -02 32 55.8   699 – Lowell Observatory-LONEOS MPS 30788
2001 05 23.32960 13 09 47.90 -02 32 50.8   699 – Lowell Observatory-LONEOS MPS 30788
2003 08 21.42296 22 20 28.92 -08 12 03.1 20.0   644 – Palomar Mountain/NEAT MPS 82945
2003 08 21.44510 22 20 27.98 -08 12 09.5 19.4   644 – Palomar Mountain/NEAT MPS 82945
2003 08 21.46727 22 20 27.04 -08 12 16.3 19.4   644 – Palomar Mountain/NEAT MPS 82945
2003 08 25.27105 22 17 48.16 -08 31 21.9 18.9   704 – Lincoln Laboratory ETS, New Mexico MPS 83245
2003 08 25.29639 22 17 46.99 -08 31 30.1 19.3   704 – Lincoln Laboratory ETS, New Mexico MPS 83245
2003 08 25.30894 22 17 46.44 -08 31 33.3 19.5   704 – Lincoln Laboratory ETS, New Mexico MPS 83245
2003 08 25.32125 22 17 45.96 -08 31 37.2 19.4   704 – Lincoln Laboratory ETS, New Mexico MPS 83245
2003 08 26.92028 22 16 38.65 -08 39 46.2 18.7 R 106 – Crni Vrh MPS 83245
2003 08 26.92910 22 16 38.27 -08 39 48.8 19.2 R 106 – Crni Vrh MPS 83245
2003 08 26.93791 22 16 37.93 -08 39 51.1 19.0 R 106 – Crni Vrh MPS 83245
2003 09 01.26862 22 12 54.38 -09 06 56.7 18.9 C 704 – Lincoln Laboratory ETS, New Mexico MPS 290989
2003 09 01.28048 22 12 53.95 -09 07 00.1 18.8 C 704 – Lincoln Laboratory ETS, New Mexico MPS 290989
2003 10 01.10584 21 56 22.46 -11 15 46.6 20.7 V 691 – Steward Observatory, Kitt Peak-Spacewatch MPS 86092
2003 10 01.13608 21 56 21.84 -11 15 52.4 20.7 V 691 – Steward Observatory, Kitt Peak-Spacewatch MPS 86092
2003 10 01.16457 21 56 21.20 -11 15 57.8 20.9 V 691 – Steward Observatory, Kitt Peak-Spacewatch MPS 86092
2004 10 07.33925 03 05 50.68 +11 58 10.0 19.2 R 699 – Lowell Observatory-LONEOS MPS 116259
2004 10 07.35548 03 05 50.24 +11 58 06.7   699 – Lowell Observatory-LONEOS MPS 116259
2004 10 07.39333 03 05 49.24 +11 57 57.7   699 – Lowell Observatory-LONEOS MPS 116259
2004 10 07.40954 03 05 48.67 +11 57 53.9   699 – Lowell Observatory-LONEOS MPS 116259
2004 10 26.95850 02 53 56.17 +10 32 09.3 20.7 V 012 – Uccle MPS 122494
2004 10 26.96058 02 53 56.18 +10 32 05.3 20.4 V 012 – Uccle MPS 122494
2004 10 26.96544 02 53 55.87 +10 32 04.7 20.3 V 012 – Uccle MPS 122494
2004 10 26.97030 02 53 55.61 +10 32 04.7 20.1 V 012 – Uccle MPS 122494
2004 10 26.98002 02 53 55.16 +10 32 02.7 20.6 V 012 – Uccle MPS 122494
2004 10 26.98490 02 53 55.02 +10 32 01.7 19.7 V 012 – Uccle MPS 122494
2004 10 26.98976 02 53 54.71 +10 31 59.5 20.4 V 012 – Uccle MPS 122494
2004 11 03.42031 02 48 16.96 +09 57 49.3 19.1   644 – Palomar Mountain/NEAT MPS 119103
2004 11 03.44157 02 48 15.96 +09 57 43.6 18.8   644 – Palomar Mountain/NEAT MPS 119103
2004 11 03.46331 02 48 14.93 +09 57 37.8 18.8   644 – Palomar Mountain/NEAT MPS 119103
2004 11 18.19469 02 37 02.57 +08 56 44.9 18.8   704 – Lincoln Laboratory ETS, New Mexico MPS 120242
2004 11 18.20739 02 37 02.01 +08 56 42.7 19.3   704 – Lincoln Laboratory ETS, New Mexico MPS 120242
2004 11 18.22014 02 37 01.56 +08 56 39.6 19.2   704 – Lincoln Laboratory ETS, New Mexico MPS 120242
2004 11 18.23291 02 37 00.91 +08 56 37.0 19.7   704 – Lincoln Laboratory ETS, New Mexico MPS 120242
2005 11 30.45011 09 41 05.73 +09 31 32.9 19.5   704 – Lincoln Laboratory ETS, New Mexico MPS 153103
2005 11 30.48763 09 41 06.83 +09 31 26.4 20.4   704 – Lincoln Laboratory ETS, New Mexico MPS 153103
2005 11 30.50037 09 41 07.07 +09 31 24.1 20.2   704 – Lincoln Laboratory ETS, New Mexico MPS 153103
2006 01 07.37782 09 45 03.12 +09 05 09.8 18.6 R 699 – Lowell Observatory-LONEOS MPS 159688
2006 01 07.40692 09 45 02.47 +09 05 14.0   699 – Lowell Observatory-LONEOS MPS 159688
2006 01 07.43609 09 45 01.84 +09 05 17.1   699 – Lowell Observatory-LONEOS MPS 159688
2006 01 07.46525 09 45 01.16 +09 05 20.8   699 – Lowell Observatory-LONEOS MPS 159688
2006 01 20.34621 09 38 50.67 +09 43 52.7 18.8 V 703 – Catalina Sky Survey MPS 160114
2006 01 20.35324 09 38 50.42 +09 43 54.6 19.2 V 703 – Catalina Sky Survey MPS 160114
